Content
SEND FEEDBACK

Daily
Averages
Monthly
Summary
United States of America

EARTH CITY, MISSOURI


Home > North America > United States > Missouri
Elevation: 476 feet     Latitude: 38 46N     Longitude: 090 30W

WEATHER
 
SELECT A DAY
Number of Records: 203,490;   Date Range: 1/1/95 - 8/12/14
 
SHARE

PRINT THIS DATA

[ ← Previous Day ]
WEATHER ALMANAC - APRIL 27, 2013
[ Next Day → ]
[ °C ]   °F
Weather ElementAverageHighLow
Temperature52.4 °F54 °F (1:51 pm)50 °F (3:51 am)
Dewpoint49.1 °F52 °F (4:51 pm)44.1 °F (12:51 am)
Humidity88.9 %94 % (2:09 pm)76 % (12:49 am)
Barometer30.11 in30.29 in (1:51 am)29.94 in (11:51 pm)
Wind Speed7.3 mph10.4 mph (12:51 am)
Weather ElementAverage
Visibility4.7 mi
Wind DirectionSE (136.9 °)

Weather ElementTotal
Precipitation0.54 in
Heating Degree Days13 (Base 65)
Growing Degree Days2 (Base 50)
Averaged from 42 records on April 27, 2013
WEATHER CONDITIONS BREAKOUT
WIND DIRECTION BREAKOUT
WEATHER BY HOUR - APRIL 27, 2013
[ °C ]   °F
Local TimeTemperatureDewpointHumidityBarometerVisibilityWind DirectionWind SpeedGust SpeedPrecipitationEventsConditions
12:49 AM51.8 °F44.6 °F76 %30.28 in10.0 miSouth (170°)8.1 mphOvercast
12:51 AM51.1 °F44.1 °F77 %30.28 in10.0 miSSE (150°)10.4 mphOvercast
1:51 AM51.1 °F44.1 °F77 %30.29 in10.0 miSouth (170°)6.9 mphOvercast
2:51 AM51.1 °F45.0 °F80 %30.25 in10.0 miSSE (150°)9.2 mph0.00 inLight Drizzle
3:25 AM51.8 °F44.6 °F76 %30.25 in9.0 miSSE (160°)6.9 mph0.00 inLight Drizzle
3:51 AM50.0 °F46.0 °F86 %30.23 in5.0 miESE (120°)6.9 mph0.00 inLight Drizzle
4:51 AM50.0 °F46.9 °F89 %30.21 in5.0 miESE (110°)5.8 mph0.00 inLight Drizzle
5:21 AM50.0 °F46.4 °F87 %30.21 in7.0 miEast (100°)3.5 mph0.00 inLight Drizzle
5:35 AM50.0 °F46.4 °F87 %30.20 in4.0 miEast (90°)4.6 mph0.00 inRainLight Rain
5:51 AM50.0 °F46.9 °F89 %30.19 in4.0 miEast (80°)8.1 mph0.00 inRainLight Rain
6:12 AM50.0 °F46.4 °F87 %30.20 in5.0 miEast (80°)4.6 mph0.00 inLight Drizzle
6:51 AM50.0 °F46.9 °F89 %30.20 in5.0 miEast (90°)8.1 mph0.00 inOvercast
7:05 AM50.0 °F46.4 °F87 %30.19 in3.0 miEast (90°)8.1 mph0.00 inLight Drizzle
7:51 AM50.0 °F48.0 °F93 %30.19 in3.0 miESE (110°)10.4 mph0.00 inLight Drizzle
8:36 AM51.8 °F48.2 °F88 %30.18 in2.5 miEast (100°)8.1 mph0.01 inRainLight Rain
8:51 AM51.1 °F48.0 °F89 %30.17 in2.5 miEast (90°)8.1 mph0.02 inRainLight Rain
9:11 AM51.8 °F48.2 °F88 %30.16 in3.0 miESE (110°)9.2 mph0.02 inRainLight Rain
9:51 AM51.1 °F48.0 °F89 %30.16 in3.0 miEast (100°)9.2 mph0.05 inRainLight Rain
10:51 AM52.0 °F48.9 °F89 %30.15 in3.0 miEast (100°)10.4 mph0.06 inRainLight Rain
11:44 AM53.6 °F50.0 °F88 %30.15 in4.0 miESE (110°)6.9 mph0.02 inRainLight Rain
11:51 AM53.1 °F50.0 °F89 %30.15 in4.0 miESE (120°)6.9 mph0.02 inRainLight Rain
12:51 PM53.1 °F50.0 °F89 %30.13 in4.0 miESE (110°)10.4 mph0.01 inLight Drizzle
1:23 PM53.6 °F50.0 °F88 %30.10 in5.0 miEast (100°)8.1 mph0.00 inLight Drizzle
1:51 PM54.0 °F50.0 °F86 %30.09 in6.0 miEast (100°)9.2 mph0.00 inLight Drizzle
2:09 PM53.6 °F51.8 °F94 %30.08 in4.0 miEast (80°)8.1 mph0.00 inLight Drizzle
2:42 PM53.6 °F51.8 °F94 %30.08 in3.0 miEast (90°)6.9 mph0.00 inLight Drizzle
2:51 PM54.0 °F51.1 °F90 %30.08 in3.0 miEast (80°)6.9 mph0.00 inLight Drizzle
3:51 PM54.0 °F51.1 °F90 %30.04 in3.0 miNE (50°)6.9 mph0.00 inLight Drizzle
4:23 PM53.6 °F51.8 °F94 %30.03 in2.0 miENE (70°)6.9 mph0.00 inLight Drizzle
4:51 PM54.0 °F52.0 °F93 %30.02 in1.5 miENE (70°)9.2 mph0.00 inLight Drizzle
5:51 PM54.0 °F52.0 °F93 %30.00 in1.5 miENE (60°)8.1 mph0.03 inRainLight Rain
6:51 PM54.0 °F52.0 °F93 %29.99 in1.5 miNE (50°)3.5 mph0.06 inRainLight Rain
7:21 PM53.6 °F51.8 °F94 %29.99 in1.0 miNorth (350°)4.6 mph0.03 inRainRain
7:51 PM54.0 °F52.0 °F93 %29.99 in1.0 miNNE (20°)4.6 mph0.12 inRainLight Rain
8:13 PM53.6 °F51.8 °F94 %29.97 in3.0 miNNE (30°)6.9 mph0.02 inRainLight Rain
8:25 PM53.6 °F51.8 °F94 %29.97 in3.0 miNorth (360°)5.8 mph0.03 inRainLight Rain
8:51 PM54.0 °F51.1 °F90 %29.97 in3.0 miNNW (340°)5.8 mph0.04 inRainLight Rain
9:20 PM53.6 °F51.8 °F94 %29.97 in5.0 miNorth (350°)5.8 mph0.00 inRainLight Rain
9:51 PM54.0 °F51.1 °F90 %29.97 in9.0 miNNE (20°)6.9 mph0.00 inOvercast
10:51 PM53.1 °F51.1 °F93 %29.95 in9.0 miNNW (340°)8.1 mphOvercast
10:57 PM53.6 °F51.8 °F94 %29.95 in8.0 miNorth (350°)6.9 mphOvercast
11:51 PM53.1 °F51.1 °F93 %29.94 in8.0 miNNW (330°)4.6 mphOvercast
Hourly data recorded from KSTL, located miles away from Earth City, Missouri







STORIES FROM OUR PARTNERS